Location: Balaclava NSW 2575, Australia
(34.4510°S, 150.4953°E)
Time: 01:06:08
(UTC+10:00)

A-11 Canister half - Pass Details

Date: 17 June 2021
Orbit: 1513 x 1687 km, 47.2° (Epoch: 28 July)

Event Time Altitude Azimuth Distance (km) Brightness Sun altitude
Rises 21:18:50 0° 241° (WSW) 4,793 12.1 -53.5°
Reaches altitude 10° 21:22:08 10° 235° (SW) 3,832 11.4 -54.2°
Enters shadow 21:25:07 22° 225° (SW) 3,034 10.7 -54.8°
